Date String (YYYY-MM-DD hh:mm:ss) UTC,Instrument flags,absolute air pressure of the measurement (hPa),sample flow rate (lpm),inlet stack bypass flow (lpm),air temperature of the measurement (°C),ambient temperature measured by the external sensor (°C),aerosol sample conditioner tube jacket temperature (°C),OPC LED temperature (°C),internal box temperature (°C),relative humidity of the measurement (%),span deviation,mass concentration of particles derived from Lorenz-Mie calculation of OPC scattering (μg/m³),mass concentration of particles derived from Lorenz-Mie calculation of OPC scattering (μg/m³),mass concentration of particles derived from Lorenz-Mie calculation of OPC scattering (μg/m³)
DateTimeUTC,F1_M11,P_M11,Q1_M11,Q2_M11,T1_M11,T2_M11,T3_M11,T4_M11,T5_M11,U1_M11,ZSPAN_M11,X0_M11,X2_M11,X1_M11
2023-06-25 17:00:00,SystemResetWarning,0835.3,5.01,000.00,029.4,024.9,000.0,037.9,030.6,29.9,0000.0,0016.80,0005.42,0004.07
2023-06-25 17:01:00,SystemResetWarning,0835.3,4.99,000.00,029.3,025.3,000.0,037.9,030.6,30.6,0000.0,0016.55,0005.35,0004.07
2023-06-25 17:02:00,SystemResetWarning,0835.3,5.01,000.00,029.3,025.8,000.0,037.9,030.6,29.8,0000.0,0016.38,0005.30,0004.07
2023-06-25 17:03:00,SystemResetWarning,0835.3,4.99,000.00,029.3,026.2,000.0,037.9,030.7,29.8,0000.0,0016.53,0005.32,0004.08
2023-06-25 17:04:00,SystemResetWarning,0835.3,5.00,000.00,029.3,026.6,000.0,037.9,030.7,30.3,0000.0,0016.58,0005.36,0004.10
2023-06-25 17:05:00,SystemResetWarning,0835.3,5.01,000.00,029.3,026.9,000.0,037.9,030.8,29.7,0000.0,0015.94,0005.38,0004.10
2023-06-25 17:06:00,SystemResetWarning,0835.3,4.99,000.00,029.3,027.1,000.0,037.9,030.8,29.7,0000.0,0015.09,0005.36,0004.11
2023-06-25 17:07:00,SystemResetWarning,0835.3,5.00,000.00,029.3,027.3,000.0,037.9,030.8,30.2,0000.0,0015.02,0005.38,0004.13
2023-06-25 17:08:00,SystemResetWarning,0835.3,5.00,000.00,029.3,027.5,000.0,037.9,030.9,29.3,0000.0,0015.03,0005.43,0004.15
2023-06-25 17:09:00,SystemResetWarning,0835.3,5.01,000.00,029.4,027.7,000.0,037.9,030.9,29.1,0000.0,0014.77,0005.42,0004.16
2023-06-25 17:10:00,SystemResetWarning,0835.3,5.00,000.00,029.4,027.8,000.0,037.9,031.0,29.4,0000.0,0014.45,0005.40,0004.15
2023-06-25 17:11:00,SystemResetWarning,0835.3,5.00,000.00,029.4,027.9,000.0,037.9,031.0,28.7,0000.0,0014.52,0005.39,0004.15
2023-06-25 17:12:00,SystemResetWarning,0835.3,5.00,000.00,029.4,028.0,000.0,037.9,031.0,28.7,0000.0,0014.23,0005.44,0004.18
2023-06-25 17:13:00,SystemResetWarning,0835.3,5.00,000.00,029.5,028.1,000.0,037.9,031.1,28.7,0000.0,0014.07,0005.53,0004.22
2023-06-25 17:14:00,SystemResetWarning,0835.3,4.99,000.00,029.5,028.1,000.0,038.0,031.1,29.6,0000.0,0014.34,0005.57,0004.23
2023-06-25 17:15:00,SystemResetWarning,0835.3,5.00,000.00,029.6,027.6,000.0,037.9,031.2,29.3,0000.0,0013.40,0005.57,0004.23
2023-06-25 17:16:00,SystemResetWarning,0835.3,5.01,000.00,029.6,025.8,000.0,037.9,031.2,28.6,0000.0,0014.17,0005.60,0004.23
2023-06-25 17:17:00,SystemResetWarning,0835.3,5.01,000.00,029.5,025.5,000.0,037.9,031.2,28.5,0000.0,0014.71,0005.66,0004.25
2023-06-25 17:18:00,SystemResetWarning,0835.3,5.01,000.00,029.5,025.8,000.0,037.9,030.9,29.1,0000.0,0014.09,0005.63,0004.26
2023-06-25 17:19:00,SystemResetWarning,0835.2,4.99,000.00,029.4,026.2,000.0,037.9,030.8,29.7,0000.0,0014.00,0005.61,0004.25
2023-06-25 17:20:00,SystemResetWarning,0835.3,5.00,000.00,029.4,026.5,000.0,037.9,030.8,29.6,0000.0,0014.12,0005.62,0004.24
2023-06-25 17:21:00,SystemResetWarning,0835.2,5.00,000.00,029.4,026.9,000.0,037.9,030.9,30.1,0000.0,0014.60,0005.63,0004.25
2023-06-25 17:22:00,SystemResetWarning,0835.2,4.99,000.00,029.4,027.1,000.0,037.9,030.9,29.9,0000.0,0014.43,0005.59,0004.26
2023-06-25 17:23:00,SystemResetWarning,0835.2,5.00,000.00,029.4,027.4,000.0,037.9,030.9,29.5,0000.0,0014.34,0005.58,0004.26
2023-06-25 17:24:00,SystemResetWarning,0835.2,5.00,000.00,029.5,027.6,000.0,037.9,031.0,29.1,0000.0,0014.29,0005.54,0004.25
2023-06-25 17:25:00,SystemResetWarning,0835.2,5.00,000.00,029.5,027.8,000.0,038.0,031.0,28.8,0000.0,0013.53,0005.51,0004.25
2023-06-25 17:26:00,SystemResetWarning,0835.2,5.00,000.00,029.5,027.9,000.0,038.0,031.1,28.4,0000.0,0013.19,0005.44,0004.24
2023-06-25 17:27:00,SystemResetWarning,0835.2,5.00,000.00,029.5,027.7,000.0,038.0,031.2,28.0,0000.0,0012.45,0005.37,0004.24
2023-06-25 17:28:00,SystemResetWarning,0835.1,4.98,000.00,029.6,026.1,000.0,037.9,031.2,28.4,0000.0,0012.95,0005.33,0004.24
2023-06-25 17:29:00,SystemResetWarning,0835.1,5.00,000.00,029.5,025.4,000.0,037.9,031.2,28.4,0000.0,0013.28,0005.42,0004.25
2023-06-25 17:30:00,SystemResetWarning,0835.1,5.01,000.00,029.5,025.7,000.0,037.9,031.0,28.4,0000.0,0013.55,0005.45,0004.26
2023-06-25 17:31:00,SystemResetWarning,0835.1,4.99,000.00,029.4,026.0,000.0,037.9,030.8,28.5,0000.0,0013.42,0005.43,0004.27
2023-06-25 17:32:00,SystemResetWarning,0835.0,5.00,000.00,029.4,026.4,000.0,037.9,030.8,28.3,0000.0,0013.14,0005.40,0004.28
2023-06-25 17:33:00,SystemResetWarning,0835.1,5.01,000.00,029.4,026.7,000.0,037.9,030.9,28.3,0000.0,0013.04,0005.42,0004.28
2023-06-25 17:34:00,SystemResetWarning,0835.0,5.00,000.00,029.4,027.0,000.0,037.9,030.9,28.2,0000.0,0013.79,0005.44,0004.31
2023-06-25 17:35:00,SystemResetWarning,0835.0,5.00,000.00,029.4,027.3,000.0,037.9,030.9,28.6,0000.0,0014.72,0005.45,0004.32
2023-06-25 17:36:00,SystemResetWarning,0835.0,5.00,000.00,029.4,027.5,000.0,037.9,030.9,28.6,0000.0,0014.84,0005.46,0004.33
2023-06-25 17:37:00,SystemResetWarning,0834.9,5.00,000.00,029.5,027.7,000.0,037.9,031.0,28.3,0000.0,0015.31,0005.48,0004.34
2023-06-25 17:38:00,SystemResetWarning,0835.0,4.99,000.00,029.5,027.8,000.0,038.0,031.0,29.2,0000.0,0014.92,0005.51,0004.34
2023-06-25 17:39:00,SystemResetWarning,0835.0,4.99,000.00,029.5,027.9,000.0,038.0,031.1,28.2,0000.0,0013.87,0005.49,0004.33
2023-06-25 17:40:00,SystemResetWarning,0835.0,5.00,000.00,029.5,026.5,000.0,037.9,031.1,27.7,0000.0,0013.53,0005.41,0004.33
2023-06-25 17:41:00,SystemResetWarning,0834.9,5.00,000.00,029.5,024.7,000.0,037.9,031.1,27.9,0000.0,0013.22,0005.35,0004.32
2023-06-25 17:42:00,SystemResetWarning,0834.9,5.02,000.00,029.5,024.5,000.0,037.8,031.0,28.7,0000.0,0013.20,0005.35,0004.33
2023-06-25 17:43:00,SystemResetWarning,0834.9,5.00,000.00,029.4,024.8,000.0,037.8,030.7,29.2,0000.0,0013.03,0005.39,0004.34
2023-06-25 17:44:00,SystemResetWarning,0834.9,4.99,000.00,029.3,025.3,000.0,037.8,030.6,30.0,0000.0,0012.65,0005.39,0004.33
2023-06-25 17:45:00,SystemResetWarning,0835.1,4.99,000.00,029.3,025.8,000.0,037.8,030.6,30.2,0000.0,0011.81,0005.36,0004.31
2023-06-25 17:46:00,SystemResetWarning,0835.2,5.00,000.00,029.2,026.2,000.0,037.8,030.6,30.1,0000.0,0011.12,0005.34,0004.30
2023-06-25 17:47:00,SystemResetWarning,0835.3,5.00,000.00,029.3,026.6,000.0,037.8,030.7,30.6,0000.0,0011.01,0005.34,0004.29
2023-06-25 17:48:00,SystemResetWarning,0835.4,5.01,000.00,029.3,026.9,000.0,037.8,030.7,30.3,0000.0,0010.65,0005.34,0004.28
2023-06-25 17:49:00,SystemResetWarning,0835.3,4.99,000.00,029.3,027.2,000.0,037.8,030.8,30.5,0000.0,0010.52,0005.30,0004.27
2023-06-25 17:50:00,SystemResetWarning,0834.8,4.99,000.00,029.3,027.4,000.0,037.8,030.8,30.5,0000.0,0010.57,0005.33,0004.27
2023-06-25 17:51:00,SystemResetWarning,0834.7,5.00,000.00,029.3,027.6,000.0,037.8,030.9,30.0,0000.0,0010.37,0005.34,0004.26
2023-06-25 17:52:00,SystemResetWarning,0834.7,5.00,000.00,029.3,027.7,000.0,037.8,030.9,29.3,0000.0,0010.39,0005.36,0004.24
2023-06-25 17:53:00,SystemResetWarning,0834.7,5.00,000.00,029.4,027.9,000.0,037.9,031.0,29.1,0000.0,0010.41,0005.33,0004.22
2023-06-25 17:54:00,SystemResetWarning,0834.7,5.00,000.00,029.4,028.0,000.0,037.9,031.0,29.1,0000.0,0010.28,0005.27,0004.21
2023-06-25 17:55:00,SystemResetWarning,0835.0,4.99,000.00,029.5,027.4,000.0,037.9,031.1,29.0,0000.0,0010.34,0005.27,0004.21
2023-06-25 17:56:00,SystemResetWarning,0835.2,5.00,000.00,029.5,025.4,000.0,037.8,031.0,28.9,0000.0,0010.43,0005.27,0004.21
2023-06-25 17:57:00,SystemResetWarning,0835.1,5.00,000.00,029.4,024.3,000.0,037.7,031.0,29.9,0000.0,0010.30,0005.29,0004.20
2023-06-25 17:58:00,SystemResetWarning,0835.0,5.01,000.00,029.3,024.5,000.0,037.7,030.7,29.2,0000.0,0010.27,0005.28,0004.20
2023-06-25 17:59:00,SystemResetWarning,0835.1,5.00,000.00,029.2,024.9,000.0,037.7,030.5,30.0,0000.0,0010.40,0005.33,0004.20
